Regional Weather Roundup
Issued by NWS

Home | Current Version | Previous Version | Text Only | Print | Product List | Glossary On
Versions: 1 2 3 4 5 6 7 8 9 10 11 12 13 14 15 16 17 18 19 20 21 22 23 24 25 26 27 28 29 30 31 32 33 34 35 36 37 38 39 40 41 42 43 44 45 46 47 48 49 50
000
ASUS44 KMEG 160410
RWRTN
TENNESSEE HOURLY STATE WEATHER ROUNDUP
NATIONAL WEATHER SERVICE MEMPHIS TN
1100 PM CDT TUE APR 15 2014

TNZ002-004-019-021-049-052-054-088>092-160500-
WEST TENNESSEE

CITY           SKY/WX    TMP DP  RH WIND       PRES   REMARKS
MEMPHIS INTL   CLEAR     40  27  59 S3        30.25R
NWS MEMPHIS      N/A     38 N/A N/A MISG        N/A
JACKSON        CLEAR     33  28  81 S3        30.25R
DYERSBURG      CLEAR     39  21  48 CALM      30.27R
UNION CITY     CLEAR     36  27  69 CALM      30.24R
PARIS          CLEAR     33  24  70 E5        30.25R WCI  28
LEXINGTON      CLEAR     34  25  69 CALM      30.24R
SAVANNAH       CLEAR     32  28  85 CALM      30.25R
$$

TNZ008-025-027-028-033-062-065-066-160500-
NORTH MIDDLE TENNESSEE

CITY           SKY/WX    TMP DP  RH WIND       PRES   REMARKS
NASHVILLE      CLEAR     38  22  52 N7        30.24R WCI  33
DICKSON        CLEAR     36  19  51 E3        30.22R
PORTLAND       FAIR      32  23  69 CALM      30.21S
CLARKSVILLE    CLEAR     36  23  59 NE3       30.24R
SMYRNA         CLEAR     37  23  57 N8        30.25R WCI  31
MURFREESBORO   CLEAR     37  23  57 N5        30.23R WCI  33
LIVINGSTON     CLEAR     34  22  61 N6        30.18R WCI  29
GALLATIN       CLEAR     36  22  57 N6        30.23R WCI  31
CROSSVILLE     CLEAR     35  22  58 N7        30.16R WCI  29
$$

TNZ061-075-076-078-094-096-097-160500-
SOUTH MIDDLE TENNESSEE

CITY           SKY/WX    TMP DP  RH WIND       PRES   REMARKS
LEWISBURG      CLEAR     34  25  70 CALM      30.23R
FAYETTEVILLE   CLEAR     35  22  59 N9        30.20R WCI  28
TULLAHOMA      CLEAR     34  21  60 N8        30.20S WCI  27
WINCHESTER     CLEAR     36  23  60 N5        30.21R WCI  32
MCMINNVILLE    CLEAR     34  23  64 CALM      30.20R
COLUMBIA       CLEAR     37  27  65 CALM      30.22R
SHELBYVILLE    CLEAR     34  25  69 CALM      30.24R
$$

TNZ017-018-042-046-047-160500-
NORTHEAST TENNESSEE

CITY           SKY/WX    TMP DP  RH WIND       PRES   REMARKS
TRI CITIES     MOCLDY    34  17  50 N13G21    30.14S WCI  25
ELIZABETHTON   CLOUDY    32  19  59 CALM      30.12S
$$

TNZ012-013-036-069-073-074-160500-
CENTRAL EAST TENNESSEE

CITY           SKY/WX    TMP DP  RH WIND       PRES   REMARKS
KNOXVILLE      PTCLDY    36  22  56 NE9       30.17R WCI  29
OAK RIDGE      CLEAR     37  23  56 VRB6      30.20R WCI  32
$$

TNZ083-085-099-160500-
SOUTHEAST TENNESSEE

CITY           SKY/WX    TMP DP  RH WIND       PRES   REMARKS
CHATTANOOGA    CLEAR     38  24  57 NW6       30.20R WCI  33
$$

SKY/WX REPORTED AS FAIR MEANS FEW OR NO CLOUDS BELOW
12 THOUSAND FEET.




USA.gov is the U.S. government's official web portal to all federal, state and local government web resources and services.